Location: Lawrence Hall of Science
(37.8785°N, 122.2415°W)
Time: 20:46:20
(UTC-07:00)

Cosmos 2151 - Visible Passes

Search period start: 18 September 2014 00:00
Search period end: 28 September 2014 00:00
Orbit: 586 x 608 km, 82.5° (Epoch: 18 September)

Date Brightness Start Highest point End Pass type
(mag) Time Alt. Az. Time Alt. Az. Time Alt. Az.
18 Sep 4.8 19:35:34 10° NE 19:37:38 13° ENE 19:39:41 10° E visible
18 Sep 4.0 21:11:11 10° NNW 21:15:16 45° W 21:17:31 23° SSW visible
19 Sep 4.3 19:44:57 10° NNE 19:48:12 21° ENE 19:51:26 10° SE visible
19 Sep 5.0 21:21:56 10° NNW 21:25:34 27° W 21:28:46 12° SW visible
20 Sep 3.7 19:54:50 10° NNE 19:58:42 33° ENE 20:02:35 10° SE visible
20 Sep 5.7 21:33:00 10° NW 21:35:49 17° W 21:38:38 10° SW visible
21 Sep 3.1 20:04:58 10° N 20:09:10 53° E 20:13:22 10° SSE visible
21 Sep 6.2 21:45:06 10° WNW 21:46:01 11° W 21:46:56 10° W visible
22 Sep 2.9 20:15:16 10° N 20:19:34 89° E 20:23:53 10° S visible
23 Sep 3.7 20:25:44 10° NNW 20:29:56 54° W 20:34:08 10° S visible
24 Sep 4.8 20:36:23 10° NNW 20:40:15 33° W 20:44:06 10° SSW visible
25 Sep 5.6 20:47:18 10° NW 20:50:30 21° W 20:53:43 10° SW visible
26 Sep 3.3 19:19:39 10° N 19:23:46 44° E 19:27:53 10° SSE visible
26 Sep 6.2 20:58:45 10° WNW 21:00:43 13° W 21:02:41 10° WSW visible
27 Sep 2.9 19:29:53 10° N 19:34:11 74° E 19:38:30 10° SSE visible
